Total_Precipitation_Accumulation
1.89 1.93 1.90 1.82 1.66 1.57 1.47 1.42 1.33 1.24 1.22 1.22 1.24 1.26 1.26 1.24 1.23 1.24 1.21 1.21 1.27 1.41 1.49 1.52 1.58 1.62 1.69 1.70 1.73 1.78 1.90 2.02 2.12 2.02 1.83 1.78 1.77 1.70 1.61 1.42 1.32 1.30 1.32
1.43 1.45 1.46 1.38 1.28 1.24 1.19 1.15 1.16 1.13 1.10 1.13 1.15 1.15 1.19 1.25 1.27 1.21 1.11 1.10 1.18 1.29 1.36 1.43 1.43 1.40 1.45 1.55 1.61 1.60 1.65 1.76 1.88 1.94 1.82 1.67 1.63 1.62 1.57 1.49 1.27 1.14 1.13
1.19 1.20 1.19 1.22 1.19 1.16 1.18 1.18 1.16 1.12 1.10 1.06 1.02 1.06 1.14 1.19 1.19 1.16 1.09 1.07 1.08 1.14 1.19 1.20 1.20 1.22 1.21 1.25 1.32 1.38 1.39 1.42 1.57 1.62 1.61 1.56 1.51 1.44 1.47 1.46 1.33 1.35 1.15
1.13 1.11 1.03 1.00 1.06 1.09 1.10 1.11 1.07 1.03 1.04 1.06 1.05 1.00 1.00 0.96 0.90 0.87 0.88 0.91 0.90 0.90 0.92 0.93 0.99 1.08 1.10 1.12 1.10 1.14 1.17 1.29 1.39 1.46 1.43 1.44 1.46 1.36 1.36 1.41 1.37 1.30 1.18
1.25 1.21 1.11 1.02 1.04 1.08 1.06 1.02 0.98 0.94 0.88 0.88 0.90 0.85 0.78 0.67 0.60 0.59 0.64 0.67 0.70 0.71 0.73 0.72 0.73 0.87 0.96 0.93 0.86 0.96 1.08 1.21 1.29 1.33 1.28 1.24 1.23 1.30 1.28 1.22 1.22 1.23 1.17
1.36 1.42 1.44 1.33 1.28 1.26 1.16 1.03 1.01 1.00 0.92 0.82 0.77 0.75 0.68 0.53 0.52 0.50 0.55 0.64 0.71 0.70 0.72 0.73 0.67 0.71 0.75 0.72 0.71 0.83 0.99 1.03 1.09 1.20 1.21 1.22 1.22 1.23 1.20 1.18 1.25 1.31 1.33
1.42 1.46 1.44 1.42 1.41 1.36 1.20 1.06 1.05 1.03 1.00 0.96 0.85 0.78 0.75 0.66 0.54 0.46 0.50 0.62 0.71 0.72 0.71 0.70 0.61 0.58 0.65 0.66 0.67 0.71 0.78 0.79 0.88 1.06 1.19 1.18 1.20 1.27 1.30 1.25 1.33 1.38 1.35
1.45 1.45 1.41 1.31 1.31 1.24 1.15 1.12 1.06 0.99 0.97 0.94 0.88 0.80 0.72 0.56 0.41 0.36 0.37 0.51 0.66 0.70 0.69 0.69 0.70 0.66 0.62 0.63 0.62 0.65 0.74 0.80 0.81 0.86 1.07 1.08 1.06 1.16 1.25 1.31 1.39 1.40 1.37
1.45 1.37 1.29 1.20 1.18 1.11 1.08 1.02 0.94 0.87 0.85 0.81 0.74 0.69 0.68 0.54 0.35 0.29 0.33 0.51 0.67 0.66 0.62 0.57 0.59 0.63 0.62 0.61 0.65 0.77 0.83 0.88 0.74 0.75 0.85 0.94 0.97 1.04 1.07 1.17 1.38 1.54 1.49
1.21 1.03 0.97 0.99 0.99 0.95 0.90 0.84 0.80 0.78 0.77 0.69 0.61 0.63 0.65 0.60 0.44 0.37 0.39 0.50 0.61 0.60 0.61 0.58 0.53 0.53 0.54 0.56 0.65 0.79 0.86 0.86 0.79 0.79 0.96 1.06 1.05 1.13 1.12 1.19 1.41 1.51 1.45
1.05 0.91 0.88 0.87 0.81 0.78 0.77 0.78 0.74 0.70 0.72 0.71 0.69 0.64 0.59 0.51 0.40 0.34 0.34 0.40 0.51 0.56 0.58 0.62 0.56 0.47 0.45 0.48 0.59 0.67 0.72 0.71 0.81 0.99 1.09 1.11 1.14 1.20 1.18 1.16 1.30 1.40 1.48
0.99 0.93 0.88 0.79 0.68 0.67 0.79 0.78 0.74 0.76 0.78 0.75 0.72 0.65 0.52 0.43 0.34 0.28 0.28 0.33 0.40 0.53 0.62 0.63 0.56 0.47 0.43 0.46 0.54 0.60 0.62 0.71 0.90 1.09 1.18 1.16 1.09 1.08 1.10 1.09 1.21 1.29 1.33
0.97 0.96 0.84 0.72 0.73 0.72 0.78 0.77 0.71 0.69 0.65 0.60 0.58 0.58 0.51 0.42 0.35 0.29 0.31 0.36 0.42 0.48 0.55 0.51 0.47 0.47 0.47 0.57 0.60 0.61 0.70 0.92 1.05 1.12 1.20 1.20 1.10 1.04 1.02 0.98 1.07 1.21 1.20
1.08 1.01 0.87 0.77 0.71 0.68 0.66 0.60 0.57 0.57 0.55 0.52 0.50 0.48 0.45 0.43 0.40 0.38 0.39 0.39 0.41 0.46 0.50 0.51 0.55 0.59 0.62 0.70 0.79 0.89 0.93 0.99 1.00 1.07 1.12 1.08 0.98 0.94 0.98 0.97 1.06 1.16 1.20
1.04 0.93 0.81 0.68 0.61 0.58 0.51 0.45 0.41 0.40 0.38 0.39 0.37 0.34 0.38 0.38 0.35 0.35 0.35 0.35 0.37 0.37 0.39 0.57 0.78 0.83 0.89 0.96 0.99 1.04 1.10 1.04 0.97 0.98 1.00 1.02 0.98 0.94 0.93 0.90 0.99 1.07 1.17
0.95 0.76 0.64 0.55 0.48 0.41 0.37 0.37 0.30 0.25 0.23 0.20 0.19 0.19 0.21 0.22 0.21 0.22 0.25 0.28 0.31 0.33 0.40 0.65 0.77 0.83 0.91 0.93 0.94 0.98 1.04 1.07 0.99 0.94 0.94 0.95 0.94 0.92 0.93 0.89 0.91 1.04 1.14
0.77 0.60 0.47 0.42 0.42 0.39 0.36 0.42 0.41 0.27 0.18 0.15 0.17 0.18 0.19 0.17 0.17 0.20 0.23 0.28 0.34 0.44 0.57 0.74 0.77 0.81 0.87 0.83 0.83 0.87 0.91 0.92 0.85 0.82 0.82 0.82 0.81 0.82 0.89 0.89 0.84 0.85 0.88
0.47 0.37 0.32 0.35 0.34 0.30 0.28 0.30 0.34 0.38 0.37 0.30 0.24 0.21 0.19 0.21 0.22 0.25 0.30 0.36 0.48 0.58 0.67 0.71 0.73 0.74 0.77 0.77 0.75 0.76 0.74 0.69 0.65 0.68 0.74 0.76 0.76 0.77 0.77 0.79 0.73 0.70 0.76
0.31 0.28 0.26 0.25 0.24 0.21 0.19 0.21 0.23 0.29 0.38 0.40 0.33 0.25 0.23 0.30 0.33 0.36 0.41 0.48 0.58 0.62 0.62 0.64 0.66 0.67 0.67 0.72 0.71 0.65 0.61 0.57 0.55 0.56 0.61 0.67 0.69 0.68 0.68 0.65 0.60 0.54 0.62
0.25 0.21 0.23 0.22 0.21 0.19 0.18 0.19 0.21 0.25 0.30 0.36 0.36 0.30 0.30 0.40 0.51 0.52 0.51 0.51 0.52 0.53 0.54 0.55 0.54 0.52 0.54 0.56 0.54 0.51 0.49 0.50 0.49 0.49 0.52 0.52 0.52 0.56 0.57 0.55 0.51 0.51 0.57
0.19 0.16 0.18 0.19 0.21 0.19 0.18 0.19 0.21 0.22 0.28 0.32 0.31 0.28 0.33 0.40 0.49 0.51 0.50 0.48 0.46 0.49 0.52 0.49 0.45 0.42 0.41 0.43 0.44 0.45 0.44 0.45 0.46 0.48 0.47 0.44 0.44 0.45 0.43 0.43 0.44 0.44 0.45
0.20 0.18 0.17 0.19 0.19 0.18 0.19 0.22 0.23 0.24 0.25 0.29 0.31 0.28 0.32 0.38 0.45 0.49 0.51 0.48 0.44 0.44 0.44 0.44 0.40 0.39 0.37 0.39 0.40 0.37 0.36 0.39 0.43 0.47 0.45 0.41 0.40 0.40 0.38 0.38 0.40 0.41 0.39
0.21 0.18 0.16 0.16 0.15 0.16 0.17 0.19 0.19 0.20 0.22 0.28 0.31 0.31 0.33 0.39 0.45 0.50 0.49 0.42 0.34 0.32 0.35 0.40 0.40 0.37 0.34 0.33 0.31 0.31 0.28 0.28 0.32 0.37 0.39 0.37 0.38 0.36 0.34 0.34 0.34 0.38 0.39
0.16 0.16 0.15 0.15 0.14 0.15 0.16 0.17 0.18 0.19 0.20 0.25 0.32 0.31 0.31 0.37 0.40 0.41 0.40 0.33 0.27 0.26 0.27 0.31 0.34 0.33 0.30 0.28 0.27 0.25 0.26 0.24 0.23 0.24 0.27 0.31 0.35 0.32 0.29 0.29 0.30 0.33 0.37
0.12 0.13 0.15 0.14 0.13 0.13 0.13 0.13 0.15 0.16 0.19 0.25 0.31 0.29 0.26 0.28 0.32 0.34 0.32 0.30 0.28 0.26 0.24 0.24 0.25 0.26 0.26 0.24 0.23 0.20 0.22 0.22 0.21 0.20 0.21 0.24 0.28 0.28 0.29 0.33 0.33 0.35 0.36
0.09 0.10 0.11 0.12 0.12 0.11 0.10 0.11 0.14 0.16 0.19 0.21 0.23 0.23 0.22 0.23 0.27 0.28 0.26 0.25 0.24 0.23 0.22 0.20 0.19 0.20 0.23 0.26 0.25 0.24 0.22 0.21 0.20 0.21 0.22 0.24 0.28 0.30 0.32 0.33 0.33 0.36 0.39